Regional Weather Roundup
Issued by NWS

Home | Current Version | Previous Version | Text Only | Print | Product List | Glossary Off
Versions: 1 2 3 4 5 6 7 8 9 10 11 12 13 14 15 16 17 18 19 20 21 22 23 24 25 26 27 28 29 30 31 32 33 34 35 36 37 38 39 40 41 42 43 44 45 46 47 48 49 50

000
ASUS43 KLMK 131302
RWRKY
KENTUCKY REGIONAL WEATHER ROUNDUP
NATIONAL WEATHER SERVICE LOUISVILLE KY
800 AM EST WED DEC 13 2017

NOTE "FAIR" INDICATES FEW OR NO CLOUDS BELOW 12,000 FEET
WITH NO SIGNIFICANT WEATHER AND/OR OBSTRUCTIONS TO VISIBILITY.

KYZ001>023-026-027-061>063-070>075-131400-
WESTERN AND SOUTH CENTRAL KENTUCKY

CITY           SKY/WX    TMP DP  RH WIND       PRES   REMARKS
PADUCAH        CLEAR     29  10  45 SW7       29.94F WCI  22
HENDERSON      CLEAR     25  16  68 S10       29.93F WCI  15
OWENSBORO      PTCLDY    24  16  71 S9        29.95F WCI  14
HOPKINSVILLE   CLOUDY    26  11  51 S8        29.98F WCI  18
BOWLING GREEN  CLOUDY    24  12  60 S7        30.00F WCI  16
GLASGOW        NOT AVBL
$$

KYZ024-025-028>034-038-045-046-053-131400-
NORTH CENTRAL KENTUCKY

CITY           SKY/WX    TMP DP  RH WIND       PRES   REMARKS
LOUISVILLE/SDF CLOUDY    24   9  52 S8        29.94F WCI  15
LOUISVILLE/LOU CLOUDY    21  12  68 S9        29.95F WCI  11
FORT KNOX      CLOUDY    18  10  70 S6        29.92F WCI   9
$$

KYZ035>037-039>044-047>052-055>060-089>105-131400-
NORTHEAST KENTUCKY

CITY           SKY/WX    TMP DP  RH WIND       PRES   REMARKS
LEXINGTON      CLOUDY    18   8  65 S7        29.95F WCI   9
COVINGTON      CLOUDY    20  12  71 S10       29.90F WCI   9
FRANKFORT      CLOUDY    18   8  65 S7        29.94F WCI   9
$$

KYZ054-064>069-076>088-106>120-131400-
SOUTHEAST KENTUCKY

CITY           SKY/WX    TMP DP  RH WIND       PRES   REMARKS
JACKSON        CLOUDY    18   8  65 SW3       29.96S
LONDON         CLOUDY    17  11  77 SE3       29.98F
SOMERSET       NOT AVBL
MIDDLESBORO    CLOUDY    17  12  80 CALM      30.02F
MONTICELLO     CLOUDY    16  12  84 W9        30.02F WCI   4
$$





USA.gov is the U.S. government's official web portal to all federal, state and local government web resources and services.